Jefferson, NC

11:57 AM EDT on July 24, 2017 (GMT -0400)
Ashe County

Weather History for KGEV - January, 2009

Change the Weather History Date:

Monday, January 5, 2009

  Actual Average Record
Temperature  
Mean Temperature 54 °F -  
Max Temperature 57 °F 43 °F 64 °F (2005)
Min Temperature 51 °F 23 °F -1 °F (1981)
Degree Days  
Heating Degree Days 11    
Growing Degree Days 4 (Base 50)    
Moisture  
Dew Point 49 °F    
Average Humidity 81    
Maximum Humidity 88    
Minimum Humidity 67    
Precipitation  
Precipitation 0.04 in - - ()
Sea Level Pressure  
Sea Level Pressure 30.03 in    
Wind  
Wind Speed 10 mph (West)    
Max Wind Speed 18 mph    
Max Gust Speed 25 mph    
Visibility 10 miles    
Events Rain    
Averages and records for this station are not official NWS values.
T = Trace of Precipitation, MM = Missing Value Source: NWS Daily Summary

Daily Weather History Graph

Daily Weather History Graph

Search for Another Location

Airport or City:

Trip Planner

Search our weather history database for the weather conditions in past years. The results will help you decide how hot, cold, wet, or windy it might be!

Date:

Astronomy

Jan. 05, 2009 Rise Set
Actual Time 7:37 AM EST 5:24 PM EST
Civil Twilight 7:09 AM EST 5:53 PM EST
Nautical Twilight 6:37 AM EST 6:25 PM EST
Astronomical Twilight 6:06 AM EST 6:56 PM EST
Moon 12:21 PM EST (1/5) 1:32 AM EST (1/5)
Length of Visible Light 10h 43m
Length of Day
9h 46m
Waxing Gibbous, 63% of the Moon is Illuminated
Jan 5
Waxing Gibbous
Jan 10
Full
Jan 17
Last Quarter
Jan 26
New
Feb 2
First Quarter

Hourly Weather History & Observations

Time (EST) Temp. Dew Point Humidity Pressure Visibility Wind Dir Wind Speed Gust Speed Precip Events Conditions
12:02 AM 55.4 °F 50.0 °F 82% 30.10 in 10.0 mi West 6.9 mph - N/A   Scattered Clouds
12:23 AM 55.4 °F 50.0 °F 82% 30.09 in 10.0 mi West 9.2 mph - N/A   Scattered Clouds
12:42 AM 55.4 °F 51.8 °F 88% 30.09 in 10.0 mi West 17.3 mph 21.9 mph N/A   Scattered Clouds
1:02 AM 55.4 °F 51.8 °F 88% 30.08 in 10.0 mi WNW 13.8 mph - N/A   Mostly Cloudy
1:23 AM 55.4 °F 51.8 °F 88% 30.09 in 10.0 mi West 12.7 mph 18.4 mph N/A   Overcast
1:42 AM 55.4 °F 51.8 °F 88% 30.09 in 10.0 mi West 9.2 mph 20.7 mph N/A   Overcast
2:04 AM 55.4 °F 51.8 °F 88% 30.09 in 10.0 mi West 10.4 mph 18.4 mph N/A   Overcast
2:22 AM 55.4 °F 51.8 °F 88% 30.10 in 10.0 mi West 5.8 mph 16.1 mph N/A   Overcast
2:42 AM 53.6 °F 50.0 °F 88% 30.09 in 10.0 mi West 8.1 mph - N/A   Mostly Cloudy
3:02 AM 53.6 °F 50.0 °F 88% 30.08 in 10.0 mi West 10.4 mph 16.1 mph N/A   Mostly Cloudy
3:22 AM 55.4 °F 51.8 °F 88% 30.08 in 10.0 mi West 8.1 mph 16.1 mph N/A   Mostly Cloudy
3:42 AM 55.4 °F 51.8 °F 88% 30.07 in 10.0 mi West 13.8 mph 20.7 mph N/A   Mostly Cloudy
4:02 AM 53.6 °F 48.2 °F 82% 30.07 in 10.0 mi West 10.4 mph 17.3 mph N/A   Scattered Clouds
4:22 AM 53.6 °F 48.2 °F 82% 30.06 in 10.0 mi West 9.2 mph 16.1 mph N/A   Scattered Clouds
4:42 AM 53.6 °F 50.0 °F 88% 30.06 in 10.0 mi Calm Calm - N/A   Mostly Cloudy
5:02 AM 53.6 °F 48.2 °F 82% 30.05 in 10.0 mi West 15.0 mph 24.2 mph N/A   Scattered Clouds
5:22 AM 55.4 °F 51.8 °F 88% 30.04 in 10.0 mi WNW 15.0 mph 25.3 mph N/A Rain Rain
5:42 AM 55.4 °F 51.8 °F 88% 30.04 in 10.0 mi West 13.8 mph 25.3 mph N/A   Clear
6:02 AM 55.4 °F 51.8 °F 88% 30.04 in 10.0 mi WSW 5.8 mph - N/A   Clear
6:22 AM 53.6 °F 48.2 °F 82% 30.05 in 10.0 mi WSW 4.6 mph - N/A   Clear
6:43 AM 53.6 °F 50.0 °F 88% 30.06 in 10.0 mi Calm Calm - N/A Rain Light Rain
7:04 AM 53.6 °F 50.0 °F 88% 30.05 in 10.0 mi West 5.8 mph - N/A Rain Rain
7:22 AM 55.4 °F 51.8 °F 88% 30.06 in 10.0 mi WNW 6.9 mph - N/A Rain Rain
7:43 AM 55.4 °F 51.8 °F 88% 30.06 in 10.0 mi West 11.5 mph 19.6 mph N/A   Overcast
8:02 AM 55.4 °F 51.8 °F 88% 30.08 in 10.0 mi NW 8.1 mph 21.9 mph N/A Rain Light Rain
8:22 AM 53.6 °F 48.2 °F 82% 30.07 in 5.0 mi West 15.0 mph 20.7 mph 0.02 in Rain Rain
8:43 AM 51.8 °F 48.2 °F 88% 30.07 in 10.0 mi West 16.1 mph 21.9 mph 0.04 in Rain Light Rain
9:02 AM 51.8 °F 48.2 °F 88% 30.08 in 10.0 mi WNW 18.4 mph 21.9 mph N/A   Overcast
9:22 AM 53.6 °F 48.2 °F 82% 30.08 in 10.0 mi WNW 9.2 mph - N/A   Scattered Clouds
9:42 AM 53.6 °F 48.2 °F 82% 30.09 in 7.0 mi WNW 11.5 mph - N/A Rain Light Rain
10:03 AM 53.6 °F 48.2 °F 82% 30.08 in 10.0 mi WNW 9.2 mph - N/A   Mostly Cloudy
10:23 AM 55.4 °F 51.8 °F 88% 30.08 in 10.0 mi WNW 9.2 mph - N/A   Mostly Cloudy
10:42 AM 53.6 °F 48.2 °F 82% 30.08 in 7.0 mi West 9.2 mph - N/A Rain Rain
11:02 AM 53.6 °F 50.0 °F 88% 30.07 in 10.0 mi West 10.4 mph 16.1 mph N/A   Overcast
11:22 AM 55.4 °F 50.0 °F 82% 30.06 in 10.0 mi WNW 9.2 mph 16.1 mph N/A   Overcast
11:42 AM 55.4 °F 50.0 °F 82% 30.05 in 10.0 mi WNW 10.4 mph - N/A   Overcast
12:02 PM 55.4 °F 50.0 °F 82% 30.04 in 10.0 mi West 12.7 mph 23.0 mph N/A   Overcast
12:22 PM 55.4 °F 48.2 °F 77% 30.03 in 10.0 mi West 9.2 mph - N/A   Overcast
12:42 PM 55.4 °F 48.2 °F 77% 30.01 in 10.0 mi West 12.7 mph 19.6 mph N/A   Overcast
1:02 PM 55.4 °F 48.2 °F 77% 30.00 in 10.0 mi West 9.2 mph 17.3 mph N/A   Mostly Cloudy
1:22 PM 57.2 °F 50.0 °F 77% 29.98 in 10.0 mi West 9.2 mph - N/A   Mostly Cloudy
1:42 PM 57.2 °F 50.0 °F 77% 29.98 in 10.0 mi West 8.1 mph 16.1 mph N/A   Mostly Cloudy
2:05 PM 57.2 °F 48.2 °F 72% 29.97 in 10.0 mi West 9.2 mph 18.4 mph N/A   Mostly Cloudy
2:22 PM 57.2 °F 48.2 °F 72% 29.97 in 10.0 mi West 12.7 mph 16.1 mph N/A   Scattered Clouds
2:42 PM 57.2 °F 48.2 °F 72% 29.97 in 10.0 mi West 13.8 mph 19.6 mph N/A   Scattered Clouds
3:02 PM 57.2 °F 48.2 °F 72% 29.97 in 10.0 mi West 5.8 mph - N/A   Scattered Clouds
3:23 PM 57.2 °F 48.2 °F 72% 29.96 in 10.0 mi West 6.9 mph - N/A   Scattered Clouds
3:42 PM 57.2 °F 46.4 °F 67% 29.97 in 10.0 mi West 8.1 mph 16.1 mph N/A   Mostly Cloudy
4:02 PM 57.2 °F 46.4 °F 67% 29.97 in 10.0 mi West 10.4 mph - N/A   Mostly Cloudy
4:23 PM 55.4 °F 46.4 °F 72% 29.96 in 10.0 mi West 8.1 mph 17.3 mph N/A   Mostly Cloudy
4:42 PM 55.4 °F 48.2 °F 77% 29.96 in 10.0 mi WNW 10.4 mph - N/A   Mostly Cloudy
5:03 PM 55.4 °F 48.2 °F 77% 29.96 in 10.0 mi West 10.4 mph - N/A   Scattered Clouds
5:22 PM 55.4 °F 48.2 °F 77% 29.96 in 10.0 mi WSW 8.1 mph 17.3 mph N/A   Scattered Clouds
5:43 PM 55.4 °F 48.2 °F 77% 29.97 in 10.0 mi West 10.4 mph - N/A   Clear
6:02 PM 55.4 °F 46.4 °F 72% 29.97 in 10.0 mi WSW 5.8 mph - N/A   Clear
6:22 PM 55.4 °F 46.4 °F 72% 29.97 in 10.0 mi WSW 6.9 mph 17.3 mph N/A   Clear
6:42 PM 55.4 °F 46.4 °F 72% 29.97 in 10.0 mi WSW 5.8 mph - N/A   Clear
7:02 PM 55.4 °F 46.4 °F 72% 29.97 in 10.0 mi Calm Calm - N/A   Clear
7:22 PM 55.4 °F 46.4 °F 72% 29.97 in 10.0 mi Calm Calm - N/A   Clear
7:43 PM 55.4 °F 46.4 °F 72% 29.97 in 10.0 mi West 3.5 mph - N/A   Scattered Clouds
8:02 PM 53.6 °F 46.4 °F 77% 29.96 in 10.0 mi Calm Calm - N/A   Scattered Clouds
8:22 PM 51.8 °F 46.4 °F 82% 29.96 in 10.0 mi North 3.5 mph - N/A   Mostly Cloudy
8:42 PM 51.8 °F 46.4 °F 82% 29.97 in 10.0 mi NW 5.8 mph - N/A   Mostly Cloudy
9:02 PM 51.8 °F 46.4 °F 82% 29.97 in 10.0 mi West 8.1 mph - N/A   Overcast
9:22 PM 51.8 °F 46.4 °F 82% 29.97 in 10.0 mi West 9.2 mph - N/A   Overcast
9:44 PM 51.8 °F 46.4 °F 82% 29.97 in 10.0 mi WNW 9.2 mph - N/A   Overcast
10:02 PM 51.8 °F 46.4 °F 82% 29.96 in 10.0 mi West 6.9 mph - N/A   Overcast
10:23 PM 51.8 °F 46.4 °F 82% 29.95 in 10.0 mi WNW 5.8 mph - N/A   Scattered Clouds
10:42 PM 51.8 °F 48.2 °F 88% 29.94 in 10.0 mi Calm Calm - N/A   Scattered Clouds
11:03 PM 51.8 °F 46.4 °F 82% 29.91 in 10.0 mi Calm Calm - N/A   Mostly Cloudy
11:22 PM 51.8 °F 46.4 °F 82% 29.92 in 10.0 mi Calm Calm - N/A   Mostly Cloudy
11:42 PM 51.8 °F 48.2 °F 88% 29.91 in 10.0 mi Calm Calm - N/A Rain Light Rain